Probability
0 0 0 0 0 0 0 0 0 0 0 0 0 0 0 0 0 0 0 0 0 0 0 0 0 0 0 0 0 0 0 0 0 0 0 0 0 0 0 0 0 0 0
0 0 0 0 0 0 0 0 0 0 0 0 0 0 0 0 0 0 0 0 0 0 0 0 0 0 0 0 0 0 0 0 0 0 0 0 0 0 0 0 0 0 0
0 0 0 0 0 0 0 0 0 0 0 0 0 0 0 0 0 0 0 0 0 0 0 0 0 0 0 0 0 0 0 0 0 0 0 0 0 0 0 0 0 0 0
0 0 0 0 0 0 0 0 0 0 0 0 0 0 0 0 0 0 0 0 0 0 0 0 0 0 0 0 0 0 0 0 0 0 0 0 0 0 0 0 0 0 0
0 0 0 0 0 0 0 0 0 0 0 0 0 0 0 0 0 0 0 0 0 0 0 0 0 0 0 0 0 0 0 0 0 0 0 0 0 0 0 0 0 0 0
0 0 0 0 0 0 0 0 0 0 0 0 0 0 0 0 0 0 0 0 0 0 0 0 0 0 0 0 0 0 0 0 0 0 0 0 0 0 0 0 0 0 0
0 0 0 0 0 0 0 0 0 0 0 0 0 0 0 0 0 0 0 0 0 0 0 0 0 0 0 0 0 0 0 0 0 0 0 0 0 0 0 0 0 0 0
0 0 0 0 0 0 0 0 0 0 0 0 0 0 0 0 0 0 0 0 0 0 0 0 0 0 0 0 0 0 0 0 0 0 0 0 0 0 0 0 0 0 0
0 0 0 0 0 0 0 0 0 0 0 0 0 0 0 0 0 0 0 0 0 0 0 0 0 0 0 0 0 0 0 0 0 0 0 0 0 0 0 0 0 0 0
0 0 0 0 0 0 0 0 0 0 0 0 0 0 0 0 0 0 0 0 0 0 0 0 0 0 0 0 0 0 0 0 0 0 0 0 0 0 0 0 0 0 0
0 0 0 0 0 0 0 0 0 0 0 0 0 0 0 0 0 0 0 0 0 0 0 0 0 0 0 0 0 0 0 0 0 0 0 0 0 0 0 0 0 0 0
0 0 0 0 0 0 0 0 0 0 0 0 0 0 0 0 0 0 0 0 0 0 0 0 0 0 0 0 0 0 0 0 0 0 0 0 0 0 0 0 0 0 0
0 0 0 0 0 0 0 0 0 0 0 0 0 0 0 0 0 0 0 0 0 0 0 0 0 0 0 0 0 0 0 0 0 0 0 0 0 0 0 0 0 0 0
0 0 0 0 0 0 0 0 0 0 0 0 0 0 0 0 0 0 0 0 0 0 0 0 0 0 0 0 0 0 0 0 0 0 0 0 0 0 0 0 0 0 0
0 0 0 0 0 0 0 0 0 0 0 0 0 0 0 0 0 0 0 0 0 0 0 0 0 0 0 0 0 0 0 0 0 0 0 0 0 0 0 0 0 0 0
0 0 0 0 0 0 0 0 0 0 0 0 0 0 0 0 0 0 0 0 0 0 0 0 0 0 0 0 0 0 0 0 0 0 0 0 0 0 0 0 0 0 0
0 0 0 0 0 0 0 0 0 0 0 0 0 0 0 0 0 0 0 0 0 0 0 0 0 0 0 0 0 0 0 0 0 0 0 0 0 0 0 0 0 0 0
0 0 0 0 0 0 0 0 0 0 0 0 0 0 0 0 0 0 0 0 0 0 0 0 0 0 0 0 0 0 0 0 0 0 0 0 0 0 0 0 0 0 0
0 0 0 0 0 0 0 0 0 0 0 0 0 0 0 0 0 0 0 0 0 0 0 0 0 0 0 0 0 0 0 0 0 0 0 0 0 0 0 0 0 0 0
0 0 0 0 0 0 0 0 0 0 0 0 0 0 0 0 0 0 0 0 0 0 0 0 0 0 0 0 0 0 0 0 0 0 0 0 0 0 0 0 0 0 0
0 0 0 0 0 0 0 0 0 0 0 0 0 0 0 0 0 0 0 0 0 0 0 0 0 0 0 0 0 0 0 0 0 0 0 0 0 0 0 0 0 0 0
0 0 0 0 0 0 0 0 0 0 0 0 0 0 0 0 0 0 0 0 0 0 0 0 0 0 0 0 0 0 0 0 0 0 0 0 0 0 0 0 0 0 0
0 0 0 0 0 0 0 0 0 0 0 0 0 0 0 0 0 0 0 0 0 0 0 0 0 0 0 0 0 0 0 0 0 0 0 0 0 0 0 0 0 0 0
0 0 0 0 0 0 0 0 0 0 0 0 0 0 0 0 0 0 0 0 0 0 0 0 0 0 0 0 0 0 0 0 0 0 0 0 0 0 0 0 0 0 0
0 0 0 0 0 0 0 0 0 0 0 0 0 0 0 0 0 0 0 0 0 0 0 0 0 0 0 0 0 0 0 0 0 0 0 0 0 0 0 0 0 0 0
0 0 0 0 0 0 0 0 0 0 0 0 0 0 0 0 0 0 0 0 0 0 0 0 0 0 0 0 0 0 0 0 0 0 0 0 0 0 0 0 0 0 0
Height
5519 5503 5487 5472 5457 5441 5424 5406 5386 5365 5342 5322 5305 5294 5288 5287 5291 5296 5302 5308 5313 5318 5322 5327 5334 5343 5353 5366 5379 5394 5408 5421 5433 5444 5458 5475 5494 5514 5532 5548 5563 5578 5591
5514 5497 5481 5466 5450 5434 5416 5396 5374 5350 5325 5304 5287 5276 5271 5270 5275 5281 5288 5296 5302 5308 5312 5318 5325 5333 5343 5355 5368 5382 5397 5410 5422 5432 5443 5460 5480 5500 5517 5533 5549 5563 5578
5509 5493 5476 5461 5445 5428 5409 5387 5364 5339 5315 5295 5281 5271 5266 5265 5268 5274 5280 5287 5293 5299 5304 5310 5317 5325 5335 5346 5359 5373 5387 5400 5412 5422 5432 5447 5466 5486 5502 5518 5534 5549 5564
5505 5489 5473 5457 5440 5422 5403 5381 5357 5333 5312 5295 5283 5275 5271 5269 5270 5272 5276 5281 5287 5293 5298 5304 5311 5319 5328 5339 5351 5364 5377 5390 5401 5411 5421 5435 5453 5471 5487 5503 5520 5536 5550
5502 5486 5470 5454 5437 5419 5400 5378 5355 5332 5312 5298 5288 5281 5278 5275 5275 5274 5276 5279 5284 5289 5294 5300 5306 5314 5323 5333 5345 5357 5369 5380 5391 5400 5410 5422 5439 5457 5474 5489 5506 5521 5535
5500 5484 5468 5452 5436 5418 5399 5378 5356 5335 5317 5303 5294 5287 5283 5280 5279 5278 5278 5280 5283 5287 5291 5297 5303 5311 5320 5330 5340 5351 5362 5372 5381 5389 5398 5410 5425 5442 5459 5474 5490 5506 5523
5500 5484 5468 5452 5436 5419 5400 5381 5361 5341 5323 5309 5300 5293 5288 5285 5283 5281 5280 5281 5283 5286 5290 5295 5302 5309 5318 5327 5336 5346 5356 5364 5373 5380 5388 5397 5411 5428 5445 5463 5477 5492 5510
5500 5485 5469 5454 5438 5422 5404 5386 5367 5348 5330 5316 5305 5298 5293 5289 5286 5284 5283 5283 5284 5287 5290 5295 5301 5308 5316 5325 5334 5343 5351 5359 5366 5373 5380 5388 5399 5413 5430 5448 5463 5480 5497
5502 5487 5472 5457 5442 5426 5410 5392 5374 5356 5339 5324 5312 5303 5297 5293 5290 5287 5286 5285 5286 5287 5290 5295 5301 5308 5315 5323 5332 5340 5348 5354 5360 5367 5373 5380 5389 5402 5417 5434 5451 5467 5484
5503 5489 5474 5459 5445 5430 5414 5398 5381 5365 5348 5333 5320 5309 5302 5297 5293 5290 5288 5287 5287 5288 5291 5295 5301 5307 5314 5322 5330 5338 5345 5351 5357 5363 5368 5374 5382 5392 5405 5420 5438 5455 5472
5503 5490 5477 5463 5449 5434 5419 5404 5389 5373 5357 5343 5329 5317 5308 5301 5296 5293 5290 5289 5289 5290 5292 5296 5301 5307 5314 5321 5328 5336 5342 5349 5354 5359 5365 5370 5377 5386 5397 5411 5427 5445 5462
5504 5492 5480 5467 5454 5440 5426 5412 5398 5384 5369 5355 5341 5328 5316 5307 5300 5296 5293 5291 5290 5291 5293 5296 5301 5307 5314 5320 5327 5334 5340 5347 5352 5357 5362 5367 5373 5382 5391 5404 5419 5436 5454
5506 5494 5483 5471 5460 5447 5434 5421 5408 5394 5381 5366 5352 5339 5327 5316 5306 5300 5296 5293 5292 5292 5293 5296 5301 5307 5313 5319 5326 5332 5339 5345 5351 5356 5360 5365 5371 5378 5387 5398 5412 5429 5446
5509 5497 5486 5475 5464 5453 5441 5428 5415 5403 5390 5376 5362 5350 5338 5326 5316 5307 5300 5296 5295 5294 5294 5297 5300 5306 5312 5318 5325 5331 5337 5343 5349 5354 5359 5364 5370 5376 5384 5394 5407 5422 5438
5511 5500 5489 5478 5467 5456 5445 5434 5421 5409 5396 5384 5372 5360 5348 5337 5325 5315 5307 5301 5298 5296 5296 5297 5300 5304 5310 5316 5323 5329 5336 5342 5348 5353 5358 5364 5369 5375 5382 5391 5402 5415 5430
5514 5503 5493 5482 5472 5460 5449 5437 5426 5415 5403 5391 5380 5368 5357 5346 5335 5325 5316 5308 5302 5299 5298 5298 5299 5303 5308 5314 5320 5327 5333 5340 5346 5352 5357 5363 5368 5374 5381 5388 5398 5409 5423
5516 5506 5495 5485 5475 5465 5454 5443 5432 5421 5409 5399 5388 5377 5367 5356 5345 5336 5326 5317 5309 5303 5301 5299 5300 5302 5305 5311 5317 5324 5331 5337 5344 5350 5356 5361 5367 5373 5379 5386 5395 5404 5416
5517 5507 5497 5488 5478 5468 5458 5448 5438 5428 5417 5406 5396 5386 5375 5365 5355 5345 5336 5327 5319 5311 5305 5302 5301 5302 5304 5308 5314 5320 5327 5334 5341 5347 5354 5360 5366 5372 5378 5385 5392 5401 5411
5519 5509 5500 5490 5481 5471 5462 5452 5442 5433 5423 5413 5403 5393 5383 5373 5364 5354 5345 5337 5328 5320 5313 5307 5304 5303 5303 5306 5310 5316 5323 5330 5337 5344 5351 5357 5364 5370 5377 5383 5390 5398 5407
5520 5511 5502 5493 5484 5474 5465 5456 5447 5437 5428 5419 5409 5400 5391 5381 5372 5363 5354 5345 5337 5329 5321 5315 5309 5306 5304 5305 5307 5312 5318 5325 5332 5340 5347 5354 5361 5368 5375 5381 5388 5396 5404
5521 5512 5503 5494 5486 5477 5469 5460 5450 5441 5432 5423 5413 5405 5396 5387 5378 5370 5361 5353 5344 5337 5329 5323 5316 5311 5307 5306 5306 5309 5313 5319 5326 5334 5341 5349 5357 5364 5371 5378 5386 5393 5401
5522 5513 5504 5496 5488 5480 5471 5463 5454 5445 5436 5427 5418 5409 5401 5392 5384 5376 5367 5359 5351 5343 5336 5330 5323 5318 5312 5309 5307 5307 5309 5313 5320 5327 5335 5343 5350 5358 5366 5373 5381 5389 5397
5522 5513 5505 5497 5489 5481 5473 5465 5457 5448 5440 5431 5422 5414 5405 5397 5389 5381 5372 5365 5357 5350 5342 5336 5329 5324 5318 5313 5310 5307 5307 5309 5313 5319 5326 5334 5342 5351 5359 5367 5375 5383 5391
5521 5513 5505 5497 5490 5482 5475 5467 5460 5451 5443 5434 5426 5417 5409 5401 5393 5385 5377 5369 5362 5354 5347 5340 5334 5328 5323 5318 5313 5309 5307 5306 5308 5312 5318 5325 5333 5341 5350 5358 5366 5374 5383
5521 5513 5505 5498 5490 5483 5475 5468 5461 5453 5445 5437 5428 5420 5412 5404 5396 5389 5381 5373 5366 5358 5351 5344 5338 5332 5326 5321 5316 5312 5308 5306 5305 5306 5310 5315 5322 5330 5339 5347 5356 5365 5373
5520 5513 5505 5498 5490 5482 5475 5468 5461 5453 5446 5438 5430 5422 5414 5407 5399 5391 5384 5376 5369 5362 5354 5347 5341 5334 5328 5323 5317 5313 5309 5305 5303 5302 5303 5307 5312 5319 5327 5335 5344 5353 5362
Wind_Speed
69 67 63 61 62 65 68 71 73 74 72 66 58 49 41 38 37 37 36 34 31 30 31 35 40 46 53 62 67 67 65 63 66 74 86 96 100 96 93 90 87 82 78
68 66 64 63 64 66 69 73 75 74 70 60 49 37 27 22 24 28 30 30 29 28 29 32 36 41 48 56 62 64 63 61 61 66 76 86 94 93 90 90 89 85 81
67 66 64 63 65 67 70 74 75 73 64 52 40 29 19 9 7 16 21 24 25 26 27 29 33 38 43 50 56 59 60 58 57 61 68 78 86 90 88 88 89 86 84
66 65 64 64 66 68 72 75 75 71 59 46 35 27 20 13 6 3 12 17 21 23 25 27 31 35 40 45 51 54 55 55 54 57 64 72 79 84 85 86 87 87 85
66 65 64 65 67 69 72 75 75 69 56 41 31 26 21 17 12 4 3 11 17 20 23 26 30 33 37 42 46 48 50 50 50 53 60 69 77 80 81 82 84 85 85
65 64 64 65 67 69 71 74 74 68 56 41 28 21 17 15 11 6 2 7 13 18 22 26 29 32 35 38 41 43 44 44 44 48 55 67 78 82 81 82 82 83 84
63 63 64 65 66 68 71 73 74 69 58 44 29 19 13 10 8 5 2 5 10 16 21 25 29 32 34 36 38 38 39 38 39 41 48 62 77 87 84 82 83 83 83
62 62 63 64 65 67 69 71 73 71 62 49 35 24 16 11 9 7 5 3 7 14 20 25 29 31 33 34 35 35 34 34 34 36 41 54 73 87 90 86 82 84 84
60 61 62 63 64 65 67 69 71 71 67 57 43 31 22 16 13 10 7 3 4 11 18 25 29 31 32 33 33 32 32 31 31 32 35 43 61 79 91 90 85 84 84
59 59 60 61 63 64 66 68 70 70 69 64 53 40 29 21 16 12 8 4 3 9 17 24 29 31 33 33 32 31 30 29 29 30 33 38 48 65 83 91 90 85 83
58 58 58 59 61 63 65 67 69 69 68 67 62 51 39 28 21 15 10 6 1 7 14 22 28 31 32 32 31 30 28 27 27 27 30 35 41 52 67 82 88 87 83
56 56 56 57 59 61 63 64 66 67 67 66 65 61 51 39 27 19 13 8 3 4 11 20 26 30 31 32 32 30 28 26 25 24 26 31 37 45 55 67 79 83 82
54 54 54 55 56 58 60 61 63 63 64 64 64 62 60 52 40 27 18 11 5 2 8 16 24 29 31 32 32 30 29 27 25 23 24 27 32 39 48 57 67 74 77
52 51 51 52 54 56 58 59 60 61 62 63 63 62 61 59 52 40 26 17 10 3 5 13 21 27 31 32 32 31 30 28 26 24 23 24 28 33 41 51 59 65 69
51 50 49 50 51 53 55 57 58 59 60 61 61 61 60 59 58 53 41 26 15 8 2 8 17 25 30 32 33 32 31 29 28 25 24 24 26 30 36 44 53 60 63
49 49 48 48 49 51 53 56 57 58 58 58 59 60 60 59 57 56 52 42 26 15 7 2 11 20 27 32 33 34 33 32 30 28 26 26 26 28 32 39 47 55 60
48 47 47 47 48 49 50 52 53 55 56 56 56 56 57 57 56 55 53 50 41 26 14 6 4 13 23 29 33 35 35 34 32 31 29 28 28 29 31 36 43 50 56
46 46 47 47 47 48 49 50 51 51 52 53 54 54 54 54 55 54 52 51 48 40 27 14 5 5 15 25 31 35 37 36 35 34 32 31 30 30 31 34 40 47 52
44 45 45 46 47 47 48 49 49 50 50 51 51 51 51 51 52 52 51 50 48 45 39 27 15 5 6 17 27 33 37 39 38 37 36 34 33 33 33 34 38 43 48
43 43 44 45 46 47 48 48 48 49 49 49 49 49 49 49 49 49 49 49 47 45 43 38 28 16 5 6 18 28 35 39 41 41 40 38 38 37 37 37 38 41 45
43 42 42 43 44 45 47 47 48 48 48 48 48 48 49 48 47 47 47 46 46 44 43 40 36 28 17 6 6 19 29 37 41 43 43 43 42 41 41 41 41 42 45
42 42 41 41 42 43 45 47 48 48 47 47 47 47 47 47 46 45 45 44 44 43 41 40 38 35 28 18 6 6 19 30 38 43 46 47 46 46 45 45 45 45 46
42 41 41 40 41 42 43 45 46 47 46 46 45 45 45 45 45 45 44 43 42 41 40 38 37 35 33 28 18 7 6 18 31 40 45 48 50 50 49 49 49 49 49
41 41 40 40 40 40 41 42 43 45 45 45 44 44 44 44 44 44 43 42 41 40 38 37 35 34 32 30 26 18 8 6 18 31 40 46 50 52 53 53 52 52 52
40 40 40 40 40 39 39 39 41 42 43 44 43 43 43 42 42 42 42 41 40 38 37 36 35 33 31 29 26 23 17 8 6 18 31 40 47 51 54 55 55 55 55
39 39 40 40 40 40 39 38 38 39 41 42 42 42 41 41 41 41 41 40 39 38 37 36 35 34 32 29 26 23 20 15 8 7 18 31 41 47 52 55 57 58 57
Wind_Direction
341 341 341 340 339 339 338 337 335 332 329 324 318 309 296 279 265 259 256 253 249 245 239 232 225 221 218 215 214 215 215 216 218 220 218 216 215 215 216 217 218 217 217
343 344 344 343 343 343 342 342 341 339 337 334 332 326 313 286 259 250 247 245 242 239 235 228 222 218 215 213 213 213 214 214 216 218 219 217 215 213 214 216 217 217 217
346 347 347 347 346 347 347 348 347 347 346 347 350 353 354 340 262 242 240 238 234 232 229 224 218 215 212 211 211 211 213 214 215 216 217 216 214 212 212 214 216 217 217
348 350 350 350 351 352 353 354 354 354 356 1 11 24 36 49 51 237 231 228 226 224 221 217 213 210 208 207 208 209 212 214 215 215 215 214 212 210 211 211 212 215 216
351 353 353 354 355 357 358 359 360 0 2 9 25 40 51 60 52 39 235 221 218 216 213 210 207 204 203 204 205 207 210 214 216 216 214 212 208 206 208 209 210 212 215
354 355 357 357 359 1 2 4 5 6 7 11 25 44 61 65 49 34 284 219 213 210 207 204 201 199 199 200 201 204 208 212 216 216 214 211 207 203 202 204 206 208 211
357 358 359 0 2 4 6 8 10 11 11 14 21 33 50 56 38 9 319 226 211 204 202 199 197 195 195 196 198 201 206 210 214 216 215 210 206 203 200 199 202 206 208
359 1 2 3 4 7 9 11 13 15 15 16 18 20 23 19 10 358 344 277 215 201 199 196 193 193 193 193 195 198 203 208 212 215 214 211 207 206 203 199 199 203 206
0 3 5 5 7 9 11 13 16 18 19 19 19 18 17 16 13 10 1 333 219 201 198 195 192 192 192 192 194 197 201 206 211 213 212 212 209 207 208 204 201 201 203
2 5 7 7 9 11 13 15 17 19 21 22 22 21 19 17 15 13 10 359 225 204 199 195 193 192 193 192 193 195 199 205 209 213 212 210 209 208 208 209 206 204 204
3 6 9 9 10 12 14 16 18 20 22 24 25 24 23 20 17 15 13 5 278 209 201 197 195 194 194 193 193 195 198 202 206 209 209 207 206 206 207 209 209 208 206
4 7 10 11 12 13 15 16 18 20 22 24 26 27 26 24 21 17 15 9 349 219 205 200 198 197 197 195 194 195 196 198 200 203 205 204 203 203 204 206 208 209 209
5 7 9 12 13 14 15 17 18 20 22 24 26 27 28 28 25 21 17 13 5 255 209 204 202 201 200 198 196 195 195 195 195 197 198 199 200 199 199 200 203 206 208
5 7 9 11 12 14 15 16 18 19 21 23 26 27 28 29 29 27 22 17 12 356 216 207 205 205 204 202 199 198 196 194 193 194 193 194 197 197 196 196 198 201 205
6 8 9 10 11 12 14 16 17 18 20 22 24 26 28 29 30 30 29 24 18 11 316 212 208 207 207 205 203 200 197 195 194 193 191 190 192 193 194 194 194 196 199
5 8 9 10 11 12 13 14 15 17 19 21 22 24 26 28 29 30 30 29 26 20 10 254 213 210 209 208 206 204 201 198 196 194 192 190 190 190 192 193 193 193 195
5 8 10 11 11 12 13 14 14 15 17 20 21 23 25 27 28 29 30 31 31 28 23 10 234 214 211 210 209 207 204 201 198 196 193 191 189 188 189 192 192 192 193
4 7 10 11 12 12 13 14 15 16 17 18 20 22 23 25 27 28 29 30 31 31 30 26 14 229 215 212 211 209 207 204 201 198 195 193 190 188 186 188 191 192 191
2 6 9 11 12 13 13 14 14 15 16 18 19 20 22 23 25 26 28 29 30 31 32 32 28 17 224 215 212 211 209 207 205 202 199 196 193 191 188 187 189 191 191
0 4 7 10 11 13 14 14 14 14 15 16 18 19 20 22 23 24 26 27 28 30 31 32 32 29 21 222 215 213 212 210 208 206 203 200 197 195 193 190 188 189 192
358 1 5 7 9 11 12 13 13 13 14 15 15 17 18 20 21 22 23 25 26 27 29 30 31 31 30 22 222 216 214 213 211 209 207 204 201 199 196 195 193 192 192
357 359 1 4 6 8 10 11 12 12 13 13 14 15 16 17 18 19 21 22 24 25 26 27 29 30 30 28 20 224 217 215 213 212 210 208 206 203 201 199 197 196 196
356 357 358 360 2 4 6 8 9 10 11 12 12 13 14 14 16 17 17 19 21 23 24 25 26 27 28 28 25 14 235 219 216 215 213 212 210 208 206 204 203 202 201
355 356 356 357 358 359 1 3 5 7 8 10 10 11 11 12 13 14 15 16 17 19 21 22 23 23 23 25 25 22 8 244 220 216 215 214 213 212 210 209 207 207 206
354 355 355 355 355 355 356 358 360 2 4 6 8 8 9 10 10 12 12 13 14 16 17 18 19 19 19 18 19 19 17 4 251 223 217 216 215 214 214 213 212 211 210
353 354 355 354 354 354 354 354 355 357 360 2 4 6 6 7 8 9 10 11 12 13 14 15 15 15 15 14 12 11 10 6 349 257 225 219 217 216 216 215 215 214 213